STARLINK-34142, 63957

Orbit data source: Space-Track

STARLINK-34142, 63957 is a payload satellite owned by SpaceX/Seattle (US) in LEO that was launched on Tue, 13 May 2025 UTC via an FALCON 9 launch vehicle from the Air Force Eastern Test Range (AFETR). Payload-class satellites include a variety of spacecraft equipped with specific instruments for various scientific and technological missions. These include communications satellites like Starlink; space stations such as the ISS; scientific satellites like the Hubble; Earth observation satellites from companies like Planet Labs, Umbra, and HawkEye 360; GPS; miniature CubeSats for education and research; and military/defense satellites.

Loading next visibility...
Identifier
63957, 2025-099F
Orbit
LEO
Country
Flag of USUS
Related business
Manufacturer
SpaceX/Seattle
Mission
Operational Commercial Communications
Bus & Motor
STARLINK V2MO, Unknown motor
Mass
575 kg wet, ~530 kg dry
Launch date (UTC)
2025-05-13 (11 months ago)
Launch vehicle
FALCON 9
Launch site
Air Force Eastern Test Range (AFETR)
Object type
Payload
Rocket body
Debris
Shape & HBR
Box + 2 Pan, 17.7 m
Radar Cross Section
36.964 m², Large (>1 m²)

Expand to show TLE details & history
Last TLE update: 15 hours ago

TLE from 15 hours ago
0 STARLINK-34142
1 63957U 25099F   26093.86146027  .00051554  00000-0  18721-2 0  9990
2 63957  43.0003  34.2710 0001146 243.3862 116.6872 15.27542216 51180
Epoch: 2026-04-03T20:40Z
TLE epoch observation values (Epoch: 2026-04-03T20:40:30.167Z)
Latitude
-0.00003°
Longitude
-108.04424°
Altitude
483.291 km
Speed
7.625 km/s
True Right ascension
02h 17m 05s
True Declination
0° 00' 00"
Sunlit
Object was in daylight at epoch
Visualization orbit readout
Latitude
Unknown
Longitude
Unknown
Altitude
Unknown
Speed
Unknown
Apparent Right ascension
Unknown
Apparent Declination
Unknown
Sunlit
N/A
Visualization observer readout
Local Sidereal Time
17:28:53
Azimuth
Unknown
Elevation
Unknown
Doppler factor
Unknown
Orbital elements
Apogee altitude
485.894 km
Perigee altitude
484.321 km
Semi-major axis
6,863.244 km
Eccentricity
0.00011
Inclination
43.0003°
RAAN
34.271°
Arg. of periapsis
243.3862°
True anomaly
116.69893°
Mean anomaly
116.6872°
Eccentric anomaly
116.69307°
Mean motion
3.81724 °/min
Orbital period
94.31 mins
BSTAR
0.0018721
Loading maneuver chart data...
Computing Atmospheric mass density...
Loading historical data...
Loading historical data...
Loading historical data...
Loading historical data...
Loading historical data...
Loading historical data...
Loading historical data...

Documentation

Showing up to 5 results
|